Retour au catalogue

STARLINK-36697

ActifCommunicationsSSO
NORAD 67698·PAYLOAD·🇺🇸 United States

Lancé Feb 7, 2026 depuis Vandenberg Space Force Base

Loading…

Prochains Passages (prochaines 24 heures)

TLE

FraisSource: CelesTrak SupGP

Époque: Sep 14, 2026, 21:15 UTC

1 67698C 26025F   26257.88590278 -.00025838  00000+0 -80192-3 0  2577
2 67698  97.2857   7.8943 0001034  89.7076  37.3361 15.33459063    15

Suivez STARLINK-36697 en temps réel avec AllMySat

Download on the App Store